This is the latest recevied weather packets stored in our database for station/object K8WEH. If no packets are shown the sender has not sent any weather packets the latest 10 day(s).
| Time | Temp. | Humidity | Pressure | Rain* | Wind** | Luminosity | Snow |
|---|---|---|---|---|---|---|---|
| 1788622859 | 24.44° C | 61% | 1014.3 hPa | 0 mm | - | - | - |
| 1788622557 | 23.89° C | 53% | 1014.3 hPa | 0 mm | - | - | - |
| 1788622267 | 23.89° C | 58% | 1014.3 hPa | 0 mm | - | - | - |
| 1788621956 | 23.89° C | 55% | 1014.1 hPa | 0 mm | - | - | - |
| 1788621656 | 23.89° C | 56% | 1014.1 hPa | 0 mm | - | - | - |
| 1788621358 | 23.89° C | 56% | 1013.7 hPa | 0 mm | - | - | - |
| 1788621056 | 23.33° C | 58% | 1013.7 hPa | 0 mm | - | - | - |
| 1788620755 | 23.33° C | 56% | 1013.6 hPa | 0 mm | - | - | - |
| 1788620455 | 23.33° C | 60% | 1013.6 hPa | 0 mm | - | - | - |
| 1788620153 | 23.33° C | 59% | 1013.6 hPa | 0 mm | - | - | - |
| 1788619852 | 23.33° C | 54% | 1013.7 hPa | 0 mm | - | - | - |
| 1788619552 | 23.33° C | 59% | 1013.9 hPa | 0 mm | - | - | - |
| 1788619251 | 23.33° C | 57% | 1014.2 hPa | 0 mm | - | - | - |
| 1788618950 | 23.33° C | 57% | 1014.3 hPa | 0 mm | - | - | - |
| 1788618650 | 23.33° C | 55% | 1014.5 hPa | 0 mm | - | - | - |
| 1788618349 | 22.78° C | 59% | 1014.8 hPa | 0 mm | - | - | - |
| 1788618049 | 22.78° C | 58% | 1015.1 hPa | 0 mm | - | - | - |
| 1788617758 | 22.78° C | 57% | 1015.4 hPa | 0 mm | - | - | - |
| 1788617450 | 22.78° C | 60% | 1015.4 hPa | 0 mm | - | - | - |
| 1788617148 | 22.78° C | 54% | 1015.5 hPa | 0 mm | - | - | - |
| 1788616846 | 22.78° C | 45% | 1015.6 hPa | 0 mm | - | - | - |
| 1788616545 | 22.78° C | 44% | 1015.9 hPa | 0 mm | - | - | - |
| 1788616245 | 22.22° C | 49% | 1015.9 hPa | 0 mm | - | - | - |
| 1788615947 | 22.22° C | 47% | 1016.1 hPa | 0 mm | - | - | - |
| 1788615668 | 22.22° C | 51% | 1016 hPa | 0 mm | - | - | - |
* Rain latest hour (hover to see other rain measurements)
** Current wind speed in m/s (hover to see current wind gust speed)